Regional Weather Roundup
Issued by NWS

Home | Current Version | Previous Version | Text Only | Print | Product List | Glossary On
Versions: 1 2 3 4 5 6 7 8 9 10 11 12 13 14 15 16 17 18 19 20 21 22 23 24 25 26 27 28 29 30 31 32 33 34 35 36 37 38 39 40 41 42 43 44 45 46 47 48 49 50
000
ASUS43 KLSX 271307
RWRMO

WEATHER SUMMARY FOR MISSOURI
NATIONAL WEATHER SERVICE SPRINGFIELD MO
800 AM CDT FRI MAY 27 2016

NOTE: "FAIR" INDICATES FEW OR NO CLOUDS BELOW 12,000 FEET WITH NO
       SIGNIFICANT WEATHER AND/OR OBSTRUCTIONS TO VISIBILITY.
       CURRENT SKY AND/OR WEATHER CONDITIONS ARE NOT AVAILABLE FOR
       CHILLICOTHE AND FARMINGTON.

MOZ001>031-035>038-043-044-053-054-271400-
...NORTHERN AND WESTERN MISSOURI...

CITY           SKY/WX    TMP DP  RH WIND       PRES   REMARKS
KANSAS CTY INT CLOUDY    63  60  90 E8        29.71R
KANSAS C DTWN  CLOUDY    64  61  90 SE6       29.72R
LEE`S SUMMIT   PTSUNNY   63  61  93 S6        29.75R
ST JOSEPH      MOSUNNY   64  61  90 SE7       29.72R
CHILLICOTHE      N/A     69  65  86 SE12G22   29.72S
KIRKSVILLE     LGT RAIN  67  65  93 S20G28    29.77F

$$
MOZ066>068-077>081-088>096-101>105-271400-
...SOUTHWEST MISSOURI...

CITY           SKY/WX    TMP DP  RH WIND       PRES   REMARKS
SPRINGFIELD    CLOUDY    70  66  87 S10       29.83R
JOPLIN         CLOUDY    64  60  87 SE9       29.80R
BRANSON        CLOUDY    70  66  88 SE9       29.85R

$$
MOZ032>034-039>042-045>050-055>058-069>072-271400-
...CENTRAL MISSOURI...

CITY           SKY/WX    TMP DP  RH WIND       PRES   REMARKS
COLUMBIA       CLOUDY    69  67  93 SE15G25   29.81R
JEFFERSON CITY CLOUDY    69  66  90 SE14      29.80S
ROLLA          CLOUDY    67  65  93 SE15G22   29.82S
SEDALIA          N/A     71  67  87 S18G25    29.79R
WHITEMAN AFB   PTSUNNY   70  70 100 S14G21    29.75R
WARRENSBURG    MOSUNNY   66  64  94 S8        29.75R

$$
MOZ051-052-059>065-271400-
...EAST CENTRAL MISSOURI...

CITY           SKY/WX    TMP DP  RH WIND       PRES   REMARKS
ST LOUIS INTL  LGT RAIN  70  65  84 SE18      29.89S
SPIRIT OF STL  LGT RAIN  69  67  93 S8        29.87R
ST CHARLES     CLOUDY    69  67  93 SE14      29.87S

$$
MOZ072>076-082>087-097>100-106>115-271400-
...SOUTH CENTRAL AND SOUTHEAST MISSOURI...

CITY           SKY/WX    TMP DP  RH WIND       PRES   REMARKS
CAPE GIRARDEAU LGT RAIN  66  65  96 E7        29.94F FOG
FARMINGTON     LGT RAIN  66  65  96 SE6       29.92S
POPLAR BLUFF   HVY RAIN  68  67  96 CALM      29.92R FOG
WEST PLAINS    CLOUDY    68  65  90 VRB7      29.88R

$$


USA.gov is the U.S. government's official web portal to all federal, state and local government web resources and services.